This is the latest recevied weather packets stored in our database for station/object BM2MWA-13. If no packets are shown the sender has not sent any weather packets the latest 10 day(s).
| Time | Temp. | Humidity | Pressure | Rain* | Wind** | Luminosity | Snow |
|---|---|---|---|---|---|---|---|
| 1787916424 | 30.56° C | 72% | 996.4 hPa | 0 mm | - | - | - |
| 1787915824 | 31.11° C | 71% | 996.2 hPa | 0 mm | - | - | - |
| 1787915224 | 31.11° C | 68% | 995.9 hPa | 0 mm | - | - | - |
| 1787914623 | 31.67° C | 67% | 995.7 hPa | 0 mm | - | - | - |
| 1787914024 | 31.67° C | 65% | 995.5 hPa | 0 mm | - | - | - |
| 1787913423 | 31.67° C | 65% | 995.4 hPa | 0 mm | - | - | - |
| 1787912824 | 31.67° C | 64% | 995.2 hPa | 0 mm | - | - | - |
| 1787912223 | 31.67° C | 64% | 995 hPa | 0 mm | - | - | - |
| 1787911624 | 31.67° C | 64% | 995 hPa | 0 mm | - | - | - |
| 1787911024 | 32.22° C | 64% | 994.9 hPa | 0 mm | - | - | - |
| 1787910423 | 32.22° C | 64% | 994.9 hPa | 0 mm | - | - | - |
| 1787909823 | 32.22° C | 63% | 994.7 hPa | 0 mm | - | - | - |
| 1787909224 | 32.22° C | 64% | 994.6 hPa | 0 mm | - | - | - |
| 1787908624 | 32.78° C | 62% | 994.6 hPa | 0 mm | - | - | - |
| 1787908023 | 32.78° C | 62% | 994.6 hPa | 0 mm | - | - | - |
| 1787907423 | 32.78° C | 59% | 994.5 hPa | 0 mm | - | - | - |
| 1787906823 | 33.89° C | 59% | 994.5 hPa | 0 mm | - | - | - |
| 1787906224 | 34.44° C | 59% | 994.4 hPa | 0 mm | - | - | - |
| 1787905623 | 33.89° C | 59% | 994.5 hPa | 0 mm | - | - | - |
| 1787905023 | 34.44° C | 58% | 994.5 hPa | 0 mm | - | - | - |
| 1787904424 | 34.44° C | 58% | 994.5 hPa | 0 mm | - | - | - |
| 1787903823 | 33.89° C | 60% | 994.4 hPa | 0 mm | - | - | - |
| 1787903223 | 33.89° C | 62% | 994.4 hPa | 0 mm | - | - | - |
| 1787902624 | 34.44° C | 59% | 994.5 hPa | 0 mm | - | - | - |
| 1787902024 | 33.89° C | 58% | 994.6 hPa | 0 mm | - | - | - |
* Rain latest hour (hover to see other rain measurements)
** Current wind speed in m/s (hover to see current wind gust speed)